[[{"header":{"parameterUnit":"m.s-1","parameterCategory":1,"la1":30.2991,"la2":30.254,"lo1":-89.0895,"lo2":-89.0444,"dy":0.0017,"dx":0.0017,"nx":28,"ny":28,"refTime":"2025-08-29T09:00:00:Z","depth":0,"parameterNumber":2,"parameterNumberName":"U-component_of_WINDS"},"data":[0,0,0,0,0,0,0,0,0,0,0,0,0,0,0,0,0,0,0,0,0,0,0,0,0,0,0,0,0,0,0,0,0,0,0,0,0,0,0,0,0,0,0,0,0,0,0,0,0,0,0,0,0,0,0,0,0,0,-5.2319,-5.232,0,-5.2408,-5.2409,-5.241,-5.2384,-5.2382,-5.238,-5.2378,-5.2465,-5.2468,-5.2472,0,0,0,0,0,0,0,0,0,0,0,0,0,-5.2124,-5.2127,-5.2319,-5.2321,-5.2322,-5.2408,-5.2409,-5.241,-5.2384,-5.2382,-5.238,-5.2378,-5.2463,-5.2468,-5.2473,0,0,0,0,0,0,0,0,0,0,0,0,0,-5.221,-5.2129,-5.2319,-5.2319,-5.232,-5.2407,-5.2409,-5.241,-5.2384,-5.2382,-5.2379,-5.2376,-5.2462,-5.2468,-5.2473,-5.2565,0,0,-5.2492,-5.2494,0,0,0,0,0,0,0,0,-5.2205,-5.2217,-5.2318,-5.2319,-5.232,-5.2382,-5.2371,-5.2462,-5.2385,-5.236,-5.2378,-5.2375,-5.2439,-5.2447,-5.2469,-5.2569,-5.2573,-5.2492,-5.2496,-5.2498,-5.25,0,0,0,0,0,0,0,-5.2199,-5.2213,-5.2354,-5.2319,-5.2321,-5.2313,-5.2322,-5.2388,-5.2413,-5.2362,-5.236,-5.2371,-5.2439,-5.2463,-5.2471,-5.2574,-5.2492,-5.2497,-5.2501,-5.2503,-5.2751,-5.2753,0,0,0,0,0,0,-5.2193,-5.2208,-5.2351,-5.2357,-5.2255,-5.2319,-5.2329,-5.2365,-5.2413,-5.2418,-5.2373,-5.237,-5.2455,-5.2464,-5.2474,-5.2581,-5.2498,-5.2504,-5.2507,-5.2748,-5.2751,-5.2754,0,0,0,0,0,0,-5.2189,-5.2206,-5.2348,-5.2282,-5.23,-5.2325,-5.2365,-5.2368,-5.2392,-5.2422,-5.2425,-5.2394,-5.2453,-5.2465,-5.2542,-5.2584,-5.2507,-5.2512,-5.2744,-5.2749,-5.2753,-5.2799,0,0,0,0,0,0,-5.2183,-5.2205,-5.2241,-5.2283,-5.2303,-5.2416,-5.2368,-5.2372,-5.2403,-5.2399,-5.2442,-5.2446,-5.2452,-5.2533,-5.2548,-5.2591,-5.2517,-5.274,-5.2746,-5.2751,-5.2794,-5.2804,-5.2814,0,0,0,0,0,-5.2176,-5.225,-5.2243,-5.226,-5.2349,-5.2419,-5.243,-5.2436,-5.2407,-5.2442,-5.2461,-5.2445,-5.2578,-5.2542,-5.2558,-5.2603,-5.2738,-5.2745,-5.2751,-5.2789,-5.2802,-5.2813,0,0,0,0,0,0,-5.221,-5.2255,-5.2248,-5.2338,-5.2375,-5.2414,-5.2459,-5.245,-5.2495,-5.2489,-5.2493,-5.2503,-5.2581,-5.26,-5.2559,-5.2693,-5.2653,-5.2664,-5.2677,-5.269,-5.2699,-5.2691,-5.2522,0,0,0,0,0,-5.2228,-5.2282,-5.2318,-5.2394,-5.2413,-5.2433,-5.2463,-5.2465,-5.2503,-5.2518,-5.2542,-5.2578,-5.2628,-5.266,-5.2708,-5.2798,-5.2805,-5.2837,-5.2847,-5.2855,-5.2862,-5.2908,-5.2922,-5.2776,-5.2776,-5.2776,0,0,-5.2265,-5.2297,-5.233,-5.2401,-5.243,-5.2484,-5.2446,-5.2505,-5.2544,-5.2526,-5.2599,-5.2619,-5.266,-5.2742,-5.278,-5.2761,-5.2905,-5.2864,-5.287,-5.2873,-5.2917,-5.293,-5.2943,-5.2781,-5.278,-5.2779,0,0,-5.2359,-5.2391,-5.2455,-5.2485,-5.253,-5.2543,-5.2559,-5.26,-5.2612,-5.2686,-5.2673,-5.272,-5.2807,-5.2835,-5.2861,-5.2967,-5.2952,-5.2983,-5.3033,-5.3078,-5.3089,-5.3099,-5.3133,-5.3146,-5.2991,-5.2991,-5.2991,0,-5.2399,-5.2481,-5.249,-5.2549,-5.258,-5.2568,-5.2632,-5.2661,-5.2718,-5.2738,-5.2717,-5.2824,-5.2851,-5.2939,-5.2965,-5.2988,-5.3003,-5.2976,-5.3087,-5.3097,-5.3107,-5.3139,-5.3153,-5.2994,-5.2994,-5.2993,-5.2993,0,-5.2526,-5.2583,-5.263,-5.2687,-5.2723,-5.2785,-5.2801,-5.2836,-5.2835,-5.285,-5.2924,-5.2957,-5.3009,-5.3031,-5.3031,-5.3119,-5.3105,-5.3086,-5.3045,-5.3123,-5.3154,-5.3167,-5.2998,-5.2997,-5.2996,-5.2996,0,0,-5.2641,-5.2702,-5.2719,-5.2743,-5.2792,-5.2836,-5.2897,-5.2949,-5.2978,-5.3019,-5.3068,-5.3142,-5.3124,-5.3153,-5.3156,-5.3196,-5.3274,-5.3171,-5.3172,-5.3186,-5.3369,-5.338,-5.3395,-5.3267,-5.3269,-5.3271,-5.3364,0,-5.2737,-5.2844,-5.2854,-5.295,-5.3001,-5.2991,-5.3044,-5.3078,-5.3094,-5.3139,-5.3156,-5.3206,-5.3181,-5.3198,-5.3238,-5.3256,-5.331,-5.325,-5.3309,-5.3311,-5.3295,-5.3412,-5.3424,-5.351,-5.3377,-5.3379,-5.338,0,-5.2862,-5.2906,-5.3008,-5.3048,-5.307,-5.3117,-5.3165,-5.3209,-5.3248,-5.3256,-5.329,-5.3287,-5.3347,-5.3308,-5.339,-5.3349,-5.3374,-5.3387,-5.3391,-5.3393,-5.3347,-5.3413,-5.3538,-5.355,-5.34,-5.3398,-5.3397,0,-5.2931,-5.3017,-5.3087,-5.3109,-5.3159,-5.3192,-5.3214,-5.325,-5.3281,-5.3324,-5.3343,-5.3392,-5.3418,-5.3455,-5.3465,-5.3436,-5.3545,-5.3508,-5.3551,-5.3551,-5.3571,-5.3569,-5.3698,-5.3595,-5.3595,-5.3594,-5.3594,0,-5.3034,-5.3095,-5.3119,-5.3162,-5.323,-5.324,-5.3306,-5.3326,-5.3359,-5.3404,-5.34,-5.3443,-5.3455,-5.35,-5.3508,-5.3573,-5.3586,-5.3592,-5.3593,-5.359,-5.3589,-5.3603,-5.3596,-5.3598,-5.3597,-5.3596,-5.3596,0,-5.312,-5.3139,-5.3215,-5.3257,-5.3268,-5.3316,-5.3351,-5.3391,-5.3407,-5.3465,-5.3479,-5.3503,-5.3555,-5.357,-5.3632,-5.3638,-5.3713,-5.371,-5.37,-5.3698,-5.374,-5.3734,-5.388,-5.3898,-5.3786,-5.3787,-5.3788,0,-5.3183,-5.3229,-5.3276,-5.3307,-5.333,-5.338,-5.3412,-5.3424,-5.3457,-5.3504,-5.3538,-5.359,-5.3632,-5.3715,-5.3737,-5.3785,-5.378,-5.3828,-5.3787,-5.3782,-5.3776,-5.3772,-5.3775,-5.3834,-5.3836,-5.3837,-5.3837,0,-5.329,-5.3297,-5.3343,-5.3393,-5.3431,-5.347,-5.3508,-5.3533,-5.355,-5.3587,-5.3641,-5.3673,-5.3737,-5.3787,-5.3836,-5.3857,-5.3849,-5.3851,-5.3863,-5.3858,-5.3849,-5.3851,-5.3716,-5.3846,-5.3845,-5.3845,-5.3844,-5.3844,-5.3364,-5.3404,-5.3443,-5.3494,-5.3524,-5.3559,-5.3599,-5.362,-5.3665,-5.3719,-5.3724,-5.3781,-5.3817,-5.3881,-5.3905,-5.3949,-5.3934,-5.3953,-5.3957,-5.396,-5.3961,-5.3846,-5.3958,-5.3958,-5.3958,-5.3958,-5.3957,0,-5.3467,-5.3492,-5.354,-5.3593,-5.3632,-5.3625,-5.3666,-5.3699,-5.375,-5.3786,-5.3827,-5.3887,-5.3936,-5.3963,-5.4012,-5.4041,-5.4039,-5.4053,-5.4049,-5.4053,-5.3973,-5.3956,-5.4054,-5.4054,-5.4054,-5.4054,-5.4054,-5.4054,-5.3526,-5.3593,-5.3604,-5.3686,-5.371,-5.3766,-5.379,-5.3822,-5.385,-5.3918,-5.3959,-5.3977,-5.4008,-5.4059,-5.4103,-5.411,-5.4126,-5.4141,-5.4145,-5.4069,-5.4059,-5.405,-5.4033,-5.4146,-5.4146,-5.4221,-5.4222,-5.4222]},{"header":{"parameterUnit":"m.s-1","parameterCategory":1,"la1":30.2991,"la2":30.254,"lo1":-89.0895,"lo2":-89.0444,"dy":0.0017,"dx":0.0017,"nx":28,"ny":28,"refTime":"2025-08-29T09:00:00:Z","depth":0,"parameterNumber":3,"parameterNumberName":"V-component_of_WINDS"},"data":[0,0,0,0,0,0,0,0,0,0,0,0,0,0,0,0,0,0,0,0,0,0,0,0,0,0,0,0,0,0,0,0,0,0,0,0,0,0,0,0,0,0,0,0,0,0,0,0,0,0,0,0,0,0,0,0,0,0,2.4184,2.4182,0,2.4021,2.4019,2.4017,2.3806,2.3802,2.3799,2.3796,2.363,2.3629,2.3628,0,0,0,0,0,0,0,0,0,0,0,0,0,2.4317,2.4316,2.4184,2.4182,2.418,2.4021,2.4019,2.4016,2.3807,2.3802,2.3798,2.3794,2.3631,2.3629,2.3628,0,0,0,0,0,0,0,0,0,0,0,0,0,2.4217,2.4315,2.4184,2.4056,2.4043,2.4021,2.4019,2.4016,2.3807,2.3802,2.3797,2.3792,2.3631,2.3629,2.3627,2.3719,0,0,2.3622,2.3621,0,0,0,0,0,0,0,0,2.4223,2.4213,2.4077,2.4065,2.405,2.3928,2.4004,2.3916,2.3809,2.3897,2.3796,2.379,2.3734,2.3723,2.3704,2.3711,2.3704,2.3622,2.3621,2.362,2.3619,0,0,0,0,0,0,0,2.423,2.4218,2.4119,2.4075,2.4059,2.4007,2.3988,2.3987,2.3846,2.3889,2.3873,2.3857,2.3725,2.3706,2.3698,2.3702,2.3622,2.362,2.3619,2.3618,2.3779,2.3784,0,0,0,0,0,0,2.4256,2.4226,2.4124,2.4114,2.4126,2.4009,2.3987,2.3973,2.3846,2.3821,2.3861,2.3847,2.3712,2.3701,2.3692,2.3791,2.362,2.3618,2.3617,2.3774,2.378,2.3786,0,0,0,0,0,0,2.426,2.4249,2.4131,2.4166,2.4147,2.4012,2.3998,2.3972,2.3952,2.3825,2.3799,2.3867,2.3707,2.3694,2.3714,2.3783,2.3617,2.3616,2.3768,2.3776,2.3783,2.3992,0,0,0,0,0,0,2.4264,2.4252,2.4284,2.4168,2.4146,2.4156,2.4002,2.3973,2.395,2.393,2.3823,2.3801,2.3702,2.3718,2.3713,2.3777,2.3614,2.3761,2.3771,2.3781,2.3978,2.4006,2.403,0,0,0,0,0,2.427,2.4349,2.4287,2.4276,2.4183,2.416,2.4147,2.4032,2.3956,2.3988,2.3907,2.3804,2.3777,2.3722,2.3714,2.3779,2.3756,2.3768,2.378,2.3967,2.4001,2.403,0,0,0,0,0,0,2.4476,2.4331,2.4261,2.4304,2.4247,2.4125,2.4161,2.4071,2.4034,2.4017,2.3876,2.3854,2.3892,2.3837,2.3779,2.3863,2.3751,2.3762,2.3896,2.3927,2.3953,2.3964,2.3613,0,0,0,0,0,2.4527,2.452,2.4394,2.4445,2.4419,2.4297,2.4282,2.4198,2.4132,2.4107,2.4026,2.3967,2.3945,2.3933,2.3906,2.3971,2.3945,2.4012,2.4038,2.4059,2.407,2.4102,2.4131,2.3826,2.3826,2.3826,0,0,2.4631,2.4552,2.4555,2.4484,2.4429,2.4426,2.4277,2.4279,2.4275,2.4107,2.4121,2.4061,2.3986,2.4029,2.4044,2.3985,2.4149,2.4075,2.4093,2.4092,2.4118,2.4147,2.4172,2.3834,2.3833,2.3831,0,0,2.4819,2.4758,2.4794,2.4743,2.4662,2.458,2.459,2.4483,2.4436,2.4448,2.4323,2.4317,2.4282,2.4234,2.4205,2.438,2.4285,2.4376,2.451,2.4543,2.4567,2.4587,2.465,2.4675,2.4387,2.4388,2.4388,0,2.4959,2.4948,2.4825,2.4835,2.4808,2.4657,2.4694,2.465,2.4566,2.4551,2.4486,2.4441,2.4379,2.441,2.4453,2.4435,2.4442,2.4386,2.4573,2.4593,2.461,2.4668,2.4693,2.4399,2.4398,2.4397,2.4396,0,2.5124,2.5119,2.5159,2.5081,2.5059,2.5083,2.4964,2.4957,2.4877,2.4803,2.4819,2.4741,2.4696,2.4697,2.4618,2.4718,2.4684,2.4599,2.4484,2.4653,2.4705,2.4727,2.4416,2.4411,2.4408,2.4405,0,0,2.5434,2.5291,2.5307,2.5271,2.5172,2.5166,2.5185,2.5141,2.5138,2.5086,2.5099,2.5075,2.4996,2.4963,2.4879,2.4908,2.5053,2.4818,2.4814,2.4865,2.5159,2.5224,2.5252,2.499,2.4994,2.4997,2.5166,0,2.5603,2.5625,2.5516,2.5567,2.5562,2.5421,2.5437,2.538,2.5312,2.5299,2.5224,2.5209,2.5106,2.5086,2.5109,2.5031,2.511,2.5017,2.5001,2.5002,2.5023,2.5279,2.5346,2.5508,2.5185,2.5189,2.5191,0,2.5802,2.5762,2.5813,2.5714,2.5708,2.5724,2.5677,2.5665,2.5599,2.5548,2.5514,2.5417,2.543,2.5323,2.5339,2.5279,2.5266,2.5228,2.5231,2.5224,2.5106,2.5278,2.5557,2.5582,2.5222,2.522,2.5218,0,2.6024,2.5982,2.6007,2.5981,2.5866,2.5882,2.5835,2.5763,2.5745,2.5704,2.5691,2.5653,2.5632,2.5606,2.5502,2.5434,2.5532,2.5415,2.5491,2.5494,2.5516,2.5516,2.5797,2.5511,2.551,2.551,2.551,0,2.6223,2.6259,2.6105,2.6121,2.6159,2.6035,2.6076,2.6016,2.5954,2.5956,2.5833,2.5838,2.5701,2.5692,2.5612,2.5639,2.563,2.559,2.5568,2.5601,2.5606,2.5589,2.5575,2.5516,2.5515,2.5514,2.5513,0,2.6475,2.6373,2.6391,2.6283,2.6257,2.629,2.6197,2.6208,2.6134,2.6139,2.6133,2.6018,2.6001,2.5896,2.5855,2.5801,2.5857,2.5813,2.588,2.5865,2.5947,2.5941,2.6226,2.6257,2.5953,2.5956,2.5959,0,2.6608,2.6633,2.6528,2.6521,2.648,2.647,2.6451,2.6332,2.6318,2.6246,2.6266,2.624,2.6211,2.6192,2.6105,2.6074,2.6028,2.613,2.6022,2.6055,2.6029,2.6029,2.6031,2.6153,2.6157,2.616,2.6163,0,2.6855,2.6804,2.6781,2.6743,2.6724,2.6688,2.6644,2.6645,2.6514,2.6505,2.6486,2.6465,2.6424,2.64,2.6354,2.6307,2.6215,2.6198,2.6214,2.6246,2.6284,2.6265,2.5942,2.6191,2.6188,2.6186,2.6185,2.6184,2.7051,2.7067,2.6997,2.6977,2.6932,2.6894,2.69,2.6828,2.681,2.6767,2.6699,2.6691,2.6627,2.6556,2.6518,2.651,2.6456,2.6479,2.6484,2.6492,2.6509,2.6287,2.6502,2.6501,2.65,2.6499,2.6498,0,2.7291,2.724,2.7223,2.7166,2.7151,2.7066,2.7014,2.7007,2.7001,2.6949,2.6925,2.6906,2.6883,2.6796,2.6764,2.6776,2.6732,2.6771,2.6768,2.676,2.6559,2.6549,2.6807,2.6807,2.6807,2.6807,2.6807,2.6807,2.7415,2.7438,2.7381,2.7382,2.733,2.7321,2.7299,2.7265,2.7223,2.7207,2.7187,2.7131,2.7065,2.7029,2.7005,2.698,2.6974,2.7027,2.6989,2.6803,2.6773,2.6745,2.6734,2.7027,2.7028,2.7189,2.7191,2.7192]}]]